Voltar ao catálogo

COSMOS 1275 DEB

AtivoPO
NORAD 42097·DEBRIS·🇷🇺 Russia

Lançado Jun 4, 1981 de Plesetsk Cosmodrome

Loading…

Próximas Passagens (próximas 24 horas)

TLE

AtualizadoSource: Space-Track

Época: Sep 14, 2026, 08:57 UTC

1 42097U 81053PH  26257.37357595  .00002271  00000-0  90651-3 0  9991
2 42097  82.8029 284.7846 0054405  58.1798 302.4668 14.27345013203541

Acompanhe COSMOS 1275 DEB em tempo real com AllMySat

Download on the App Store